This is the latest recevied weather packets stored in our database for station/object KK6LZB. If no packets are shown the sender has not sent any weather packets the latest 10 day(s).
| Time | Temp. | Humidity | Pressure | Rain* | Wind** | Luminosity | Snow |
|---|---|---|---|---|---|---|---|
| 1777645530 | 15.56° C | 88% | 1016.3 hPa | 0 mm | - | 41 W/m² | - |
| 1777645226 | 15.56° C | 88% | 1016.4 hPa | 0 mm | - | 35 W/m² | - |
| 1777644921 | 15.56° C | 89% | 1016.5 hPa | 0 mm | - | 31 W/m² | - |
| 1777644620 | 15.56° C | 88% | 1016.4 hPa | 0 mm | - | 31 W/m² | - |
| 1777644315 | 15.56° C | 89% | 1016.2 hPa | 0 mm | - | 28 W/m² | - |
| 1777644011 | 15.56° C | 89% | 1016.2 hPa | 0 mm | - | 27 W/m² | - |
| 1777643709 | 15.56° C | 89% | 1016.1 hPa | 0 mm | - | 23 W/m² | - |
| 1777643406 | 15.56° C | 89% | 1016 hPa | 0 mm | - | 23 W/m² | - |
| 1777643102 | 15° C | 88% | 1016 hPa | 0 mm | - | 19 W/m² | - |
| 1777642799 | 15° C | 89% | 1015.9 hPa | 0 mm | - | 16 W/m² | - |
| 1777642495 | 15° C | 89% | 1015.9 hPa | 0 mm | - | 13 W/m² | - |
| 1777642192 | 15° C | 89% | 1016 hPa | 0 mm | - | 10 W/m² | - |
| 1777641890 | 15° C | 88% | 1015.9 hPa | 0 mm | - | 8 W/m² | - |
| 1777641590 | 15° C | 89% | 1016.2 hPa | 0 mm | - | 5 W/m² | - |
| 1777641289 | 15° C | 89% | 1016 hPa | 0 mm | - | 4 W/m² | - |
| 1777640986 | 15° C | 89% | 1015.8 hPa | 0 mm | - | 3 W/m² | - |
| 1777640683 | 15° C | 89% | 1015.9 hPa | 0 mm | - | 2 W/m² | - |
| 1777640379 | 15° C | 88% | 1016 hPa | 0 mm | - | 1 W/m² | - |
| 1777640076 | 15° C | 88% | 1015.9 hPa | 0 mm | - | 0 W/m² | - |
| 1777639773 | 15° C | 88% | 1016 hPa | 0 mm | - | 0 W/m² | - |
| 1777639471 | 15° C | 88% | 1015.7 hPa | 0 mm | - | 0 W/m² | - |
| 1777639167 | 15° C | 89% | 1015.8 hPa | 0 mm | - | 0 W/m² | - |
| 1777638864 | 15° C | 89% | 1015.7 hPa | 0 mm | - | 0 W/m² | - |
| 1777638559 | 15° C | 89% | 1015.8 hPa | 0 mm | - | 0 W/m² | - |
| 1777638256 | 15° C | 89% | 1015.7 hPa | 0 mm | - | 0 W/m² | - |
* Rain latest hour (hover to see other rain measurements)
** Current wind speed in m/s (hover to see current wind gust speed)